| time (UTC) | temp F | wind direction | speed MPH | gust MPH | rain 1hr in | rain 24hr in | rain mn in | humidity % | barometer mb |
| 20260504041517 | 44 | 196 | 2.0 | 7.0 | 0.00 | 0.00 | 0.00 | 59 | 1014.3 |
| 20260504040020 | 44 | 180 | 3.0 | 9.0 | 0.00 | 0.00 | 0.00 | 58 | 1014.5 |
| 20260504034517 | 44 | 197 | 3.0 | 7.0 | 0.00 | 0.00 | 0.00 | 58 | 1014.4 |
| 20260504031518 | 45 | 195 | 2.0 | 7.0 | 0.00 | 0.00 | 0.00 | 58 | 1014.5 |
| 20260504030014 | 45 | 241 | 3.0 | 8.0 | 0.00 | 0.00 | 0.00 | 57 | 1014.6 |
| 20260504024514 | 45 | 192 | 2.0 | 8.0 | 0.00 | 0.00 | 0.00 | 56 | 1014.7 |
| 20260504021518 | 46 | 239 | 3.0 | 7.0 | 0.00 | 0.00 | 0.00 | 54 | 1014.9 |
| 20260504020015 | 46 | 230 | 2.0 | 7.0 | 0.00 | 0.00 | 0.00 | 54 | 1014.9 |
| 20260504014514 | 47 | 195 | 2.0 | 8.0 | 0.00 | 0.00 | 0.00 | 53 | 1014.6 |
| 20260504011513 | 48 | 215 | 2.0 | 12.0 | 0.00 | 0.00 | 0.00 | 51 | 1014.4 |
| 20260504010013 | 48 | 209 | 3.0 | 10.0 | 0.00 | 0.00 | 0.00 | 51 | 1014.6 |
| 20260504004518 | 48 | 195 | 3.0 | 9.0 | 0.00 | 0.00 | 0.00 | 50 | 1014.3 |
| 20260504001512 | 49 | 197 | 3.0 | 11.0 | 0.00 | 0.00 | 0.00 | 49 | 1014.3 |
| 20260504000012 | 49 | 246 | 3.0 | 12.0 | 0.00 | 0.00 | 0.00 | 49 | 1014.2 |
| 20260503234517 | 49 | 277 | 4.0 | 14.0 | 0.00 | 0.00 | 0.00 | 47 | 1014.1 |
| 20260503231520 | 50 | 239 | 3.0 | 10.0 | 0.00 | 0.00 | 0.00 | 47 | 1014.1 |
| 20260503230017 | 50 | 259 | 7.0 | 18.0 | 0.00 | 0.00 | 0.00 | 46 | 1014.0 |
| 20260503224515 | 50 | 246 | 9.0 | 19.0 | 0.00 | 0.00 | 0.00 | 46 | 1014.1 |
| 20260503221512 | 50 | 242 | 6.0 | 12.0 | 0.00 | 0.00 | 0.00 | 46 | 1014.0 |
| 20260503220012 | 50 | 223 | 6.0 | 14.0 | 0.00 | 0.00 | 0.00 | 46 | 1014.2 |
| 20260503214532 | 50 | 202 | 5.0 | 17.0 | 0.00 | 0.00 | 0.00 | 46 | 1014.1 |
| 20260503211512 | 51 | 245 | 6.0 | 15.0 | 0.00 | 0.00 | 0.00 | 45 | 1014.1 |
| 20260503210010 | 51 | 285 | 4.0 | 18.0 | 0.00 | 0.00 | 0.00 | 46 | 1014.1 |
| 20260503204508 | 51 | 228 | 6.0 | 16.0 | 0.00 | 0.00 | 0.00 | 47 | 1014.1 |
| 20260503201503 | 49 | 236 | 8.0 | 15.0 | 0.00 | 0.00 | 0.00 | 49 | 1014.3 |
| 20260503200001 | 48 | 246 | 8.0 | 17.0 | 0.00 | 0.00 | 0.00 | 50 | 1014.5 |
| 20260503194605 | 49 | 250 | 7.0 | 16.0 | 0.00 | 0.00 | 0.00 | 49 | 1014.7 |
| 20260503191604 | 49 | 220 | 9.0 | 17.0 | 0.00 | 0.00 | 0.00 | 48 | 1015.0 |
| 20260503190054 | 49 | 241 | 5.0 | 16.0 | 0.00 | 0.00 | 0.00 | 49 | 1015.2 |
| 20260503184604 | 48 | 244 | 7.0 | 12.0 | 0.00 | 0.00 | 0.00 | 48 | 1015.1 |
| 20260503181608 | 48 | 270 | 11.0 | 19.0 | 0.00 | 0.00 | 0.00 | 47 | 1015.4 |
| 20260503180107 | 47 | 251 | 8.0 | 20.0 | 0.00 | 0.00 | 0.00 | 48 | 1015.5 |
| 20260503174556 | 49 | 270 | 6.0 | 19.0 | 0.00 | 0.00 | 0.00 | 46 | 1015.4 |
| 20260503171555 | 48 | 278 | 5.0 | 16.0 | 0.00 | 0.00 | 0.00 | 44 | 1015.6 |
| 20260503081543 | 31 | 260 | 5.0 | 10.0 | 0.00 | 0.00 | 0.00 | 85 | 1016.0 |
| 20260503071530 | 31 | 253 | 3.0 | 12.0 | 0.00 | 0.00 | 0.00 | 84 | 1015.8 |
| 20260503054523 | 31 | 251 | 5.0 | 10.0 | 0.00 | 0.00 | 0.00 | 83 | 1016.2 |
| 20260503053122 | 32 | 263 | 3.0 | 10.0 | 0.00 | 0.00 | 0.00 | 83 | 1016.2 |
| 20260503051533 | 32 | 289 | 3.0 | 10.0 | 0.00 | 0.00 | 0.00 | 83 | 1016.5 |
| 20260503050023 | 32 | 263 | 2.0 | 7.0 | 0.00 | 0.00 | 0.00 | 83 | 1016.7 |
| 20260503044527 | 32 | 264 | 1.0 | 6.0 | 0.00 | 0.00 | 0.00 | 82 | 1016.7 |